Starlink 30585

operational
NORAD ID: 58063 Int'l Des: 2023-158 Owner: SPXS Country: US Constellation: starlink
LEOCIRCULAR

关于 Starlink 30585

正在加载描述...

实时位置

正在加载3D地球...

即将过境

高度历史

Altitude vs Time

uPlot chart will show altitude changes over time

两行轨道根数

1 58063U 23158N 25308.43641208 -.00000344 00000-0 -10410-4 0 9990
2 58063 43.0044 350.6103 0001380 268.7302 91.3383 15.02538652114692
Epoch: Nov 4, 2025 • Age: 7 hours

当前状态

高度 562.8 km
速度 7.59 km/s
星下点 41.58°N, 118.11°E
发射日期 Oct 13, 2023
运行时间 2 years
类型 internet

技术详情

分类 Payload
质量 730.00 kg
干质量 700.00 kg
总质量 730.00 kg
长度 0.30 m
直径 4.10 m
跨度 29.00 m
形状 Box + pan
制造商 SPXS
平台类型 Starlink V2M
阶段状态 In Orbit
所有者/国家 SPXS/US

大型星座

Loading constellations...